Regional Weather Roundup
Issued by NWS

Home | Current Version | Previous Version | Graphics & Text | Print | Product List | Glossary On
Versions: 1 2 3 4 5 6 7 8 9 10 11 12 13 14 15 16 17 18 19 20 21 22 23 24 25 26 27 28 29 30 31 32 33 34 35 36 37 38 39 40 41 42 43 44 45 46 47 48 49 50
000
ASUS43 KLSX 201457
RWRMO

WEATHER SUMMARY FOR MISSOURI
NATIONAL WEATHER SERVICE SPRINGFIELD MO
1000 AM CDT SUN AUG 20 2017

NOTE: "FAIR" INDICATES FEW OR NO CLOUDS BELOW 12,000 FEET WITH NO
       SIGNIFICANT WEATHER AND/OR OBSTRUCTIONS TO VISIBILITY.
       CURRENT SKY AND/OR WEATHER CONDITIONS ARE NOT AVAILABLE FOR
       CHILLICOTHE AND FARMINGTON.

MOZ001>031-035>038-043-044-053-054-201600-
...NORTHERN AND WESTERN MISSOURI...

CITY           SKY/WX    TMP DP  RH WIND       PRES   REMARKS
KANSAS CTY INT MOSUNNY   74  68  81 SE12      30.00F
LEE`S SUMMIT   PTSUNNY   74  69  85 E10       30.05S
ST JOSEPH      MOSUNNY   76  68  76 SE13      29.97R
CHILLICOTHE      N/A     71  68  90 NE10G17   29.95F

$$
MOZ066>068-077>081-088>096-101>105-201600-
...SOUTHWEST MISSOURI...

CITY           SKY/WX    TMP DP  RH WIND       PRES   REMARKS
SPRINGFIELD    SUNNY     83  76  79 SW12      30.05F HX  91
JOPLIN         SUNNY     87  77  72 SW7       30.05R HX  99
BRANSON        MOSUNNY   84  73  70 SW5       30.09R HX  91

$$
MOZ032>034-039>042-045>050-055>058-069>072-201600-
...CENTRAL MISSOURI...

CITY           SKY/WX    TMP DP  RH WIND       PRES   REMARKS
COLUMBIA       NOT AVBL
JEFFERSON CITY PTSUNNY   79  70  74 CALM      30.05F
ROLLA          CLOUDY    77  70  79 N12       30.09R
SEDALIA        CLOUDY    74  72  93 E7        30.07R
WARRENSBURG    MOSUNNY   73  68  83 NE6       30.05R
OSAGE BEACH    CLOUDY    72  70  94 E6        30.08S

$$
MOZ051-052-059>065-201600-
...EAST CENTRAL MISSOURI...

CITY           SKY/WX    TMP DP  RH WIND       PRES   REMARKS
ST LOUIS INTL  CLOUDY    83  73  72 W3        30.03F

$$
MOZ072>076-082>087-097>100-106>115-201600-
...SOUTH CENTRAL AND SOUTHEAST MISSOURI...

CITY           SKY/WX    TMP DP  RH WIND       PRES   REMARKS
CAPE GIRARDEAU MOSUNNY   83  74  74 S3        30.06S
POPLAR BLUFF   SUNNY     83  76  79 SE6       30.06R HX  91
WEST PLAINS    PTSUNNY   76  69  79 CALM      30.09S THUNDER

$$



USA.gov is the U.S. government's official web portal to all federal, state and local government web resources and services.